CW1767 Weather Reports


time (UTC)temp
C
wind
direction
speed
KPH
gust
KPH
rain 1hr
cm
rain 24hr
cm
rain mn
cm
humidity
%
barometer
mb
20260506014501 20 71 0.0 3.2 0.00 0.00 0.00 71 1012.7
20260506013001 20 31 0.0 4.8 0.00 0.00 0.00 70 1012.6
20260506011500 20 57 0.0 4.8 0.00 0.00 0.00 70 1012.5
20260506010000 20 275 0.0 4.8 0.00 0.00 0.00 69 1012.2
20260506004601 21 92 0.0 3.2 0.00 0.00 0.00 68 1012.0
20260506003100 21 99 0.0 6.4 0.00 0.00 0.00 66 1011.7
20260506001559 21 98 0.0 4.8 0.00 0.00 0.00 65 1011.6
20260505234605 22 46 0.0 4.8 0.00 0.00 0.00 60 1011.4
20260505233110 22 82 0.0 6.4 0.00 0.00 0.00 59 1011.4
20260505231605 22 81 1.6 4.8 0.00 0.00 0.00 57 1011.4
20260505230056 23 84 0.0 4.8 0.00 0.00 0.00 55 1011.3
20260505224556 23 48 0.0 6.4 0.00 0.00 0.00 54 1011.2
20260505223057 24 20 0.0 4.8 0.00 0.00 0.00 52 1011.2
20260505221555 25 50 0.0 4.8 0.00 0.00 0.00 51 1011.1
20260505220056 25 15 1.6 4.8 0.00 0.00 0.00 48 1011.2
20260505214558 25 44 1.6 9.7 0.00 0.00 0.00 46 1011.2
20260505213053 26 48 1.6 8.0 0.00 0.00 0.00 44 1010.9
20260505211606 26 24 0.0 16.1 0.00 0.00 0.00 43 1011.0
20260505210051 26 41 1.6 6.4 0.00 0.00 0.00 40 1010.9
20260505204552 26 13 1.6 8.0 0.00 0.00 0.00 40 1011.1
20260505203050 27 28 0.0 6.4 0.00 0.00 0.00 40 1011.2
20260505201556 27 117 1.6 6.4 0.00 0.00 0.00 39 1011.4
20260505200049 27 126 1.6 4.8 0.00 0.00 0.00 38 1011.6
20260505194556 27 157 1.6 9.7 0.00 0.00 0.00 37 1011.8
20260505193044 28 15 1.6 12.9 0.00 0.00 0.00 38 1011.9
20260505191541 28 64 1.6 4.8 0.00 0.00 0.00 38 1012.0
20260505190040 28 172 0.0 6.4 0.00 0.00 0.00 39 1012.1
20260505184538 28 164 0.0 6.4 0.00 0.00 0.00 39 1012.2
20260505183040 28 76 0.0 6.4 0.00 0.00 0.00 40 1012.4
20260505181537 28 96 0.0 4.8 0.00 0.00 0.00 41 1012.4
20260505180039 28 65 1.6 4.8 0.00 0.00 0.00 41 1012.8
20260505174540 27 43 1.6 4.8 0.00 0.00 0.00 42 1012.9
20260505173034 28 97 0.0 4.8 0.00 0.00 0.00 43 1013.1
20260505171533 27 70 1.6 4.8 0.00 0.00 0.00 43 1013.1
20260505170027 27 131 0.0 3.2 0.00 0.00 0.00 44 1013.1
20260505164526 26 134 0.0 4.8 0.00 0.00 0.00 45 1013.3
20260505163024 26 154 0.0 6.4 0.00 0.00 0.00 45 1013.4
20260505161523 26 92 0.0 3.2 0.00 0.00 0.00 47 1013.5
20260505153012 23 117 0.0 4.8 0.00 0.00 0.00 51 1013.6
20260505151509 23 125 0.0 3.2 0.00 0.00 0.00 54 1013.6
20260505130105 18 105 0.0 9.7 0.00 0.00 0.00 65 1013.7
20260505124546 18 121 0.0 6.4 0.00 0.00 0.00 67 1013.7
20260505123044 17 101 0.0 1.6 0.00 0.00 0.00 69 1013.6
20260505121539 17 113 0.0 1.6 0.00 0.00 0.00 71 1013.5
20260505120039 17 140 0.0 1.6 0.00 0.00 0.00 74 1013.4
20260505114538 16 106 0.0 1.6 0.00 0.00 0.00 76 1013.3
20260505113039 16 93 0.0 3.2 0.00 0.00 0.00 77 1013.2
20260505111540 16 117 0.0 1.6 0.00 0.00 0.00 78 1013.2
20260505101532 15 144 0.0 0.0 0.00 0.00 0.00 78 1012.7
20260505100032 15 144 0.0 0.0 0.00 0.00 0.00 77 1012.5
20260505094529 15 144 0.0 1.6 0.00 0.00 0.00 77 1012.5
20260505093027 15 158 0.0 0.0 0.00 0.00 0.00 77 1012.4
20260505091525 16 160 0.0 1.6 0.00 0.00 0.00 76 1012.5
20260505090025 16 146 0.0 1.6 0.00 0.00 0.00 76 1012.4
20260505084526 16 150 0.0 0.0 0.00 0.00 0.00 75 1012.3
20260505083021 16 148 0.0 0.0 0.00 0.00 0.00 74 1012.4
20260505081529 16 149 0.0 0.0 0.00 0.00 0.00 74 1012.4
20260505080020 16 121 0.0 1.6 0.00 0.00 0.00 73 1012.4
20260505074518 16 101 0.0 1.6 0.00 0.00 0.00 73 1012.4
20260505073015 17 111 0.0 1.6 0.00 0.00 0.00 72 1012.3
20260505071531 17 106 0.0 1.6 0.00 0.00 0.00 72 1012.2
20260505070014 17 84 0.0 1.6 0.00 0.00 0.00 71 1012.3
20260505064520 17 103 0.0 3.2 0.00 0.00 0.00 71 1012.0
20260505063015 17 74 0.0 3.2 0.00 0.00 0.00 71 1012.0
20260505061512 17 124 0.0 3.2 0.00 0.00 0.00 71 1012.2
20260505060011 17 90 0.0 3.2 0.00 0.00 0.00 71 1012.2
20260505054511 17 83 0.0 3.2 0.00 0.00 0.00 71 1012.1
20260505053012 17 142 0.0 3.2 0.00 0.00 0.00 71 1012.1
20260505051512 18 74 0.0 4.8 0.00 0.00 0.00 70 1012.0
20260505041507 17 135 0.0 1.6 0.00 0.00 0.00 71 1012.0
20260505040005 17 112 0.0 3.2 0.00 0.00 0.00 73 1012.0
20260505034501 16 93 0.0 1.6 0.00 0.00 0.00 76 1012.0
20260505033102 16 98 0.0 1.6 0.00 0.00 0.00 78 1012.0
20260505031601 16 85 0.0 0.0 0.00 0.00 0.00 78 1011.9
20260505030104 15 84 0.0 3.2 0.00 0.00 0.00 79 1012.0
20260505024558 15 93 0.0 1.6 0.00 0.00 0.00 78 1011.9
20260505023108 15 82 0.0 1.6 0.00 0.00 0.00 77 1012.4
20260505021601 16 82 0.0 1.6 0.00 0.00 0.00 75 1011.8
20260505020059 16 82 0.0 1.6 0.00 0.00 0.00 74 1011.9